Lapse_Rate
6.1 5.7 5.4 5.7 6.2 6.2 6.7 7.0 7.2 6.6 6.6 6.9 6.9 7.0 6.9 6.9 6.8 6.8 6.8 6.8 6.7 6.7 6.9 6.5 6.4 6.2 5.9 5.6 5.5 5.1 4.9 5.2 5.0 5.4 5.5 5.9 6.3 6.7 6.9 6.6 6.5 6.4 6.6
6.3 5.9 5.7 6.0 6.1 6.2 6.3 7.3 6.9 6.9 6.8 6.6 6.8 6.9 6.9 7.2 7.3 7.2 7.0 6.8 6.8 6.7 6.6 6.5 6.7 6.7 6.4 6.4 6.0 5.6 5.4 5.5 5.3 5.2 5.8 6.1 6.4 6.6 6.9 7.0 7.0 6.7 6.4
5.6 5.4 5.2 6.0 5.7 6.1 6.6 6.7 6.7 6.6 6.6 6.9 7.0 6.9 7.0 7.0 6.9 7.0 7.2 7.4 7.1 6.8 6.8 6.9 6.7 6.6 6.5 6.7 6.3 6.1 5.9 5.7 5.6 5.5 5.9 6.2 6.6 6.8 6.5 6.4 6.6 6.6 6.6
5.8 6.0 6.0 6.0 6.5 6.4 6.5 7.1 6.8 6.7 6.7 6.8 6.9 7.0 7.0 7.0 7.1 7.0 6.9 6.9 7.2 7.1 7.0 6.9 6.7 6.7 6.7 6.4 6.4 6.2 6.1 5.9 5.7 5.6 5.8 6.0 6.0 6.1 5.8 5.9 5.6 5.1 5.3
5.6 5.9 6.2 6.9 7.1 7.1 7.1 6.9 6.8 7.4 7.1 7.1 7.1 7.0 6.9 6.9 7.0 7.0 7.0 6.9 6.7 6.9 6.9 6.9 6.6 6.5 6.6 6.7 6.5 6.5 6.4 6.3 6.3 6.1 5.9 5.9 5.8 5.8 4.9 5.1 4.9 5.0 5.1
6.1 6.2 6.5 6.6 6.5 6.5 6.7 6.7 6.6 6.5 6.6 6.6 6.7 6.6 6.8 6.9 6.9 6.8 6.7 6.6 6.6 6.7 6.6 6.7 6.9 6.7 6.3 6.5 6.5 6.6 6.3 6.1 6.3 6.3 6.2 6.0 5.8 5.7 5.2 4.9 4.9 4.8 4.6
7.0 7.0 7.1 7.0 6.8 6.6 6.4 6.2 6.2 6.2 6.3 6.4 6.4 6.4 6.5 6.5 6.6 6.6 6.5 6.4 6.3 6.2 6.4 6.4 6.1 6.5 6.8 6.4 6.3 6.6 6.4 6.3 6.3 6.3 6.0 6.3 5.8 5.6 5.3 5.1 4.9 5.0 4.9
6.6 6.5 6.3 6.4 6.1 6.1 5.9 6.0 6.1 6.2 6.2 6.3 6.2 6.1 6.1 6.2 6.1 6.1 6.2 6.1 6.0 6.0 5.9 6.0 6.2 6.0 6.0 6.4 6.4 6.1 6.4 6.5 6.4 6.3 6.0 6.6 5.9 5.6 5.3 5.1 4.8 4.9 5.1
6.1 6.1 6.0 5.9 5.9 5.8 5.8 5.5 5.4 5.4 5.6 5.9 5.9 5.6 5.4 5.6 5.6 5.6 5.4 5.6 5.9 6.1 6.0 6.1 6.1 6.1 6.0 6.0 6.1 6.1 5.9 6.1 6.4 6.5 6.1 6.1 6.1 5.8 5.3 5.3 5.2 4.9 5.2
6.2 6.1 6.1 6.1 6.0 5.6 5.0 4.8 4.4 4.4 4.6 4.6 5.2 5.1 5.0 5.1 5.4 5.3 4.8 4.6 5.0 5.4 5.7 6.0 6.1 6.3 6.2 6.0 5.8 5.8 5.9 6.1 6.2 6.2 6.3 6.1 6.0 5.8 5.6 5.3 5.2 5.2 5.0
6.4 6.3 6.3 6.2 5.8 5.4 4.8 4.4 4.2 4.2 4.1 4.3 4.9 4.9 5.6 5.7 5.9 5.4 5.0 4.7 4.8 4.9 5.4 5.7 6.0 6.1 6.5 6.3 6.1 5.5 5.7 5.9 6.2 5.9 5.9 5.8 5.6 5.4 5.6 5.4 5.4 4.9 4.8
6.1 6.0 5.7 5.4 5.4 5.3 5.1 4.6 4.5 4.7 4.2 4.3 4.7 5.2 5.4 5.5 5.6 5.8 5.6 5.3 5.1 5.4 5.6 5.7 5.9 6.0 6.0 5.8 5.8 5.7 5.6 5.8 6.1 6.0 5.8 5.7 5.7 5.4 5.7 5.7 5.8 5.2 5.0
5.9 6.1 5.8 6.0 6.1 5.6 5.3 5.0 4.7 4.2 3.9 3.9 3.6 4.7 5.2 5.7 5.9 5.9 5.7 5.8 5.5 5.7 6.0 6.2 6.3 5.8 5.9 6.3 6.2 6.1 5.9 6.0 6.0 5.9 5.8 5.7 5.4 5.3 5.2 5.6 5.5 5.5 5.5
6.1 6.1 5.9 5.9 5.3 5.2 4.6 4.4 4.3 3.5 3.7 3.6 3.8 4.0 4.7 5.6 5.9 5.9 5.8 5.4 5.4 5.5 5.6 5.8 6.0 6.2 6.1 5.7 5.6 5.9 5.9 6.3 6.1 6.1 5.8 5.5 5.5 5.1 5.5 5.3 5.2 5.6 5.5
5.9 5.6 5.4 5.5 5.4 5.3 5.1 4.7 4.3 3.8 3.5 3.4 3.6 4.0 4.2 5.0 5.6 5.8 5.6 5.2 5.7 5.7 5.9 5.9 5.9 6.1 6.2 6.4 6.1 6.2 6.4 6.6 6.2 6.1 5.9 5.4 5.4 5.2 5.3 5.6 5.7 5.6 5.5
5.6 5.1 5.0 5.1 5.2 5.4 5.2 4.9 5.6 5.0 4.2 3.6 3.7 4.0 4.0 4.3 4.9 6.1 6.2 6.2 6.8 6.4 6.1 6.2 5.9 5.5 5.8 5.9 6.4 6.8 6.8 6.6 6.4 6.2 5.9 5.5 5.5 5.4 5.5 5.5 5.6 5.6 5.8
5.7 5.5 5.0 5.1 5.4 5.1 4.9 4.8 4.8 4.9 4.8 4.6 4.4 4.7 4.1 4.5 6.1 6.4 6.9 6.9 7.2 7.2 7.0 6.8 6.3 5.6 5.6 5.8 5.9 6.5 6.7 6.6 6.5 6.5 6.1 5.9 5.6 5.4 5.2 5.6 5.6 5.9 6.0
5.4 5.3 5.4 5.6 5.5 5.2 5.3 5.3 5.0 5.3 5.5 5.3 4.7 4.6 4.7 4.4 5.7 6.7 7.0 7.2 7.0 6.9 6.8 6.7 6.4 6.1 5.8 6.0 6.0 6.4 6.7 6.8 6.6 6.4 6.4 6.0 5.6 5.9 5.6 5.8 5.8 5.7 6.0
5.4 5.7 5.7 5.6 5.7 5.8 5.9 5.7 5.6 5.5 5.6 5.2 5.1 5.3 4.9 5.0 4.6 6.0 6.2 6.5 6.7 6.8 6.8 6.6 6.4 6.1 6.0 6.1 6.5 6.3 6.5 6.6 6.5 6.2 6.3 6.0 6.1 6.2 6.1 5.8 5.6 5.7 5.9
5.6 5.8 5.7 5.8 6.0 5.9 5.8 5.8 5.7 5.7 5.7 5.5 5.0 5.0 4.9 4.6 4.9 4.9 5.7 6.1 6.3 6.3 6.0 6.5 6.5 6.6 6.4 6.4 6.2 6.0 6.2 6.6 6.1 6.5 5.9 6.0 6.1 6.0 5.9 5.8 5.8 5.7 5.7
5.7 5.7 5.8 5.9 6.0 6.0 5.8 5.7 5.6 5.4 5.4 5.2 5.2 5.3 4.9 5.1 5.0 4.9 4.9 5.5 5.0 5.3 5.9 6.2 6.3 6.0 6.3 6.4 6.5 6.2 5.6 6.3 4.5 5.9 6.0 6.2 5.5 5.8 5.9 5.6 5.5 5.2 5.0
5.6 5.7 5.9 6.0 5.7 5.9 5.8 5.7 5.4 5.5 5.4 5.3 5.2 5.0 5.0 5.1 5.1 5.1 5.0 5.1 4.9 5.1 5.0 4.7 4.7 5.4 5.9 5.9 5.7 5.1 6.0 5.2 4.4 5.2 5.4 4.3 4.3 4.6 5.0 5.4 4.2 3.9 4.5
5.7 5.9 5.8 5.9 5.9 5.8 5.8 5.8 5.7 5.5 5.4 5.3 5.1 4.9 4.9 5.0 4.8 5.1 5.9 5.4 5.3 5.4 5.0 4.5 4.4 4.9 4.8 4.8 5.1 4.6 4.6 4.4 3.7 3.8 4.2 4.3 4.5 4.7 4.5 5.0 5.0 4.5 4.7
5.9 5.9 6.0 6.1 5.8 5.8 5.9 5.9 5.8 5.5 5.4 5.3 5.2 5.0 4.8 4.7 4.7 5.0 5.2 6.0 5.7 5.6 5.1 5.6 4.9 4.6 4.5 4.4 4.5 4.6 4.4 4.4 4.4 4.3 4.4 4.7 4.8 5.1 5.1 5.1 4.6 4.7 4.8
6.0 5.9 5.9 6.1 5.8 6.1 5.9 5.9 5.7 5.6 5.4 5.2 5.1 4.9 4.9 4.7 4.5 4.5 4.3 5.1 5.5 5.7 5.6 5.5 5.7 5.8 5.1 4.6 4.7 5.0 5.0 4.7 4.8 4.9 4.9 4.7 4.5 4.5 4.4 4.6 4.5 4.5 4.3
5.9 6.1 6.1 6.1 6.2 6.1 6.0 5.7 5.7 5.6 5.5 5.3 5.0 4.6 4.6 4.5 4.6 4.5 4.8 4.6 4.1 4.2 4.7 5.7 6.0 5.8 5.6 5.6 5.6 5.6 5.6 5.4 5.2 5.1 5.3 5.6 5.7 5.8 5.3 5.1 5.0 4.5 4.3
Wind_Speed
8 8 6 7 7 8 9 7 7 9 9 11 11 12 12 12 12 11 10 12 13 12 12 13 14 13 13 13 12 12 11 12 14 11 11 11 9 8 10 13 16 14 18
6 7 7 7 9 9 9 12 13 10 11 13 13 13 13 13 13 13 13 13 13 14 14 13 15 11 14 13 13 15 14 14 12 13 10 10 10 10 11 12 11 17 15
7 6 9 9 9 11 12 13 13 14 15 16 14 14 15 15 15 15 14 14 14 15 15 15 14 14 14 12 14 13 13 13 14 13 13 12 13 11 12 11 10 11 14
5 3 5 8 9 11 12 13 13 14 16 16 17 17 17 17 17 17 16 15 15 15 16 16 15 15 15 15 14 15 15 15 15 12 12 11 11 10 10 11 10 9 10
4 6 8 8 9 10 9 12 13 14 15 17 17 18 18 18 17 17 16 16 15 15 15 14 16 17 15 14 12 14 14 13 13 14 14 13 13 12 12 10 11 10 9
8 9 8 9 10 11 12 13 15 15 15 16 17 18 19 16 23 24 21 19 20 18 17 17 16 19 21 21 19 23 20 15 15 13 14 16 16 12 10 10 10 10 8
4 5 6 7 10 10 11 13 15 16 16 16 17 18 20 19 21 19 21 18 18 19 20 19 17 16 16 17 17 19 22 23 25 19 17 16 15 13 11 10 10 10 11
6 7 9 10 12 13 14 15 16 17 17 17 18 19 20 17 22 19 20 20 20 22 23 22 21 21 20 18 18 19 19 19 19 15 19 21 17 10 10 9 10 10 9
7 8 9 10 11 13 15 15 15 17 18 18 18 21 21 22 26 22 19 18 20 23 21 23 23 24 25 18 20 21 21 21 17 15 15 15 13 15 14 10 12 11 13
10 10 10 12 13 13 14 14 15 16 17 16 20 20 25 23 27 25 22 16 20 17 21 23 30 27 25 18 19 19 20 20 17 18 7 11 14 15 17 14 12 13 12
11 12 12 13 13 13 13 13 15 16 16 17 18 18 22 23 23 26 26 18 16 17 17 16 16 23 24 30 27 21 22 16 16 14 14 11 11 13 12 13 14 13 13
11 13 14 13 12 12 13 12 15 16 16 16 17 17 15 19 26 24 26 27 27 18 19 17 18 22 12 16 18 23 22 19 15 12 11 11 11 12 12 11 13 13 12
12 13 13 13 13 12 11 10 12 12 14 14 14 15 16 14 14 24 25 26 28 20 18 22 25 25 30 25 20 17 14 13 13 11 11 10 9 11 10 6 8 10 12
13 13 12 12 12 8 6 9 10 12 9 9 12 15 16 15 14 12 12 12 22 20 25 22 24 22 23 22 16 14 12 12 12 10 10 11 10 10 10 6 5 8 8
13 13 14 11 13 8 7 9 10 12 6 7 8 10 16 17 17 25 22 15 12 13 1 6 5 6 10 14 14 15 14 9 11 8 10 9 9 10 8 8 8 8 7
13 12 10 11 12 10 9 11 8 12 12 12 13 10 14 29 37 33 29 27 28 25 13 9 6 7 9 10 11 11 11 12 11 11 11 9 10 9 8 7 7 7 7
11 13 11 12 11 12 12 11 12 11 8 10 11 16 20 32 38 35 29 17 18 13 10 10 8 8 11 11 12 10 10 10 12 8 7 7 6 6 4 4 5 1 2
13 15 13 10 9 11 10 10 10 12 12 12 7 10 17 29 37 31 23 6 2 4 8 10 11 12 11 12 11 8 6 7 7 7 7 6 5 5 4 3 3 4 5
12 11 10 11 10 6 9 8 10 12 11 12 9 7 9 19 26 21 25 15 12 7 6 9 10 9 11 12 9 6 6 6 6 7 6 3 6 8 7 8 7 8 8
11 14 13 11 11 10 10 11 8 8 6 11 6 8 8 10 16 18 15 16 14 12 13 13 11 8 8 9 9 6 7 8 5 5 6 3 5 5 8 8 8 9 8
10 11 12 12 12 10 9 9 7 9 7 7 9 3 3 8 9 11 13 12 14 15 17 16 13 14 13 12 9 11 12 9 7 13 8 8 7 7 6 4 4 4 8
10 12 10 11 12 10 12 12 7 8 8 8 7 3 6 3 6 7 9 10 11 12 11 11 10 14 12 13 14 13 14 10 5 4 9 2 2 3 2 0 4 6 8
12 12 10 13 10 13 11 11 12 9 12 10 6 3 3 3 2 4 5 6 6 5 6 7 9 12 11 11 10 8 6 3 2 2 0 4 2 2 8 10 8 8 7
13 12 11 11 10 11 11 12 11 11 10 11 11 10 5 5 2 1 1 4 4 7 4 7 9 9 4 5 6 7 9 9 9 9 8 7 8 5 6 6 7 7 7
14 14 14 11 8 9 9 10 10 10 9 9 9 9 9 10 8 5 4 3 2 4 6 7 7 11 12 13 12 12 15 18 15 16 8 9 8 11 9 5 7 4 6
14 14 11 11 11 9 8 9 9 8 8 8 8 8 9 8 9 8 8 8 1 3 5 4 6 9 8 9 11 14 17 19 14 20 8 8 8 9 9 9 10 8 5
Wind_Direction
31 45 24 340 348 328 325 337 320 328 318 298 296 297 295 297 297 296 287 284 278 279 272 271 272 268 265 270 277 273 253 244 263 262 265 263 256 248 261 273 276 270 272
26 19 345 341 346 326 341 338 330 320 314 302 303 298 289 286 284 283 284 292 287 275 271 270 270 264 259 257 263 271 279 284 288 285 275 272 267 270 259 245 246 264 274
51 15 1 343 343 337 332 330 325 316 310 305 298 294 294 293 286 280 274 277 275 276 281 279 267 262 260 253 254 257 267 255 248 255 264 261 255 251 249 235 231 236 248
19 28 26 339 341 338 335 325 318 317 312 307 304 303 299 293 284 281 276 268 268 269 266 265 276 267 256 260 252 254 256 264 271 267 255 257 263 266 261 261 255 243 244
22 18 17 346 346 333 316 318 317 315 303 299 295 293 291 289 282 281 280 276 267 267 263 266 267 267 284 281 267 254 254 256 256 264 265 256 253 248 249 250 252 258 252
19 17 2 353 343 334 330 327 320 307 301 296 294 291 287 283 285 296 301 292 291 277 275 270 267 264 267 265 250 250 247 248 252 252 256 259 250 259 259 266 272 272 283
20 17 5 354 352 346 335 326 323 312 307 305 299 291 286 284 279 277 284 286 283 276 272 269 268 265 265 266 264 250 242 234 237 249 254 258 274 283 297 301 285 288 286
6 353 348 346 344 337 329 325 324 321 311 307 299 295 294 289 281 272 265 270 269 268 268 270 268 266 261 263 266 267 266 256 238 237 243 253 252 268 279 280 283 285 277
335 333 327 319 317 319 328 326 324 320 312 306 305 301 292 287 284 281 273 272 268 264 262 258 256 255 254 248 253 257 261 263 269 232 221 235 230 231 243 265 263 253 253
316 313 310 308 307 312 312 313 321 320 316 321 308 299 292 286 279 269 265 266 264 262 262 261 255 251 254 237 247 253 255 254 256 259 237 244 236 230 223 231 245 251 253
308 304 300 300 300 297 293 311 315 315 320 316 306 299 297 287 279 268 260 259 260 264 264 264 262 253 242 237 237 245 247 258 258 255 254 247 243 229 227 224 232 236 244
306 303 297 296 295 306 298 307 317 311 315 320 317 312 305 296 284 272 259 251 253 259 257 263 272 278 265 244 238 241 239 239 251 247 246 244 241 244 238 225 227 233 243
299 301 302 300 292 286 306 318 311 337 330 325 326 322 321 309 304 279 261 251 249 252 256 261 267 271 281 291 266 245 243 242 246 234 232 237 236 252 264 199 228 244 242
302 306 303 290 279 313 294 335 325 334 322 322 334 334 326 323 314 311 289 260 245 251 251 254 250 249 258 268 281 261 241 244 239 229 226 230 229 242 245 238 239 226 242
301 305 292 303 316 323 322 329 308 328 295 285 303 329 337 327 317 302 286 281 253 248 332 333 297 280 284 246 244 236 244 223 231 223 224 218 223 234 232 242 243 240 234
300 297 318 304 312 313 325 316 286 269 260 263 272 302 324 326 326 313 296 267 246 244 254 257 265 271 276 280 236 241 237 229 222 220 214 210 213 211 222 218 225 226 239
296 296 300 301 322 328 327 319 321 313 280 260 271 297 319 328 334 325 330 292 237 213 230 242 247 255 268 274 270 238 237 219 206 192 197 200 204 207 189 226 195 111 124
295 270 274 310 323 302 306 305 308 307 307 316 342 321 326 335 337 334 337 359 50 209 254 245 245 249 245 250 264 238 225 205 188 171 166 171 185 177 117 109 124 148 127
288 295 307 303 299 289 284 305 301 317 316 316 333 326 330 340 336 347 6 22 9 350 249 241 240 243 251 249 234 195 173 169 165 143 167 137 144 111 126 121 115 117 120
282 282 275 297 311 312 298 321 311 305 304 310 330 340 338 347 9 1 4 16 17 22 22 16 13 37 58 65 58 42 68 49 57 97 58 85 135 127 121 134 134 141 119
299 302 305 298 312 319 313 305 320 301 305 306 344 20 337 357 6 9 359 8 18 25 25 20 13 31 36 42 40 66 55 48 27 55 51 32 28 47 42 54 60 77 122
302 295 313 309 301 316 322 316 289 326 309 347 344 129 189 29 6 5 354 358 7 24 22 30 19 41 31 34 30 27 49 29 344 63 75 97 188 100 71 42 228 170 150
296 294 297 294 308 314 309 323 321 337 342 341 1 27 160 51 35 355 340 350 356 2 16 42 34 39 31 25 28 22 29 320 60 91 142 282 4 316 212 214 207 193 181
282 289 295 289 299 295 308 318 335 336 341 347 352 0 17 152 154 169 296 352 1 26 42 61 69 80 95 66 53 26 14 7 17 16 30 22 22 53 55 26 39 68 126
305 298 293 298 290 303 307 319 331 334 343 347 357 355 356 2 8 135 147 143 99 44 49 56 57 61 66 69 58 43 25 20 24 4 22 29 36 20 8 57 351 60 32
291 289 314 311 307 312 325 324 318 326 343 336 344 1 349 5 0 12 7 14 325 141 140 115 97 86 68 55 44 37 30 24 16 358 351 23 16 38 357 343 15 336 2